Flag for Austria Weather past 2 weeks in Kapfenberg, Styria, Austria

Now
9 °F

Clear.


Feels Like: 0 °F
Forecast: 13 / 22 °F
Wind: 5 mph from Northwest

Location: Zeltweg

Current Time: Dec 29, 2014 at 7:12:25 AM

Latest Report: Dec 29, 2014 at 5:50 AM


Visibility: 6 mi

Pressure: 30.15 "Hg

Humidity: 78%

Dew point: 3 °F

Location of KapfenbergLocation

Historic Weather in Kapfenberg — Graph

°F

Kapfenberg temperature yesterday

Maximum temperature yesterday: 30 °F (at 6:50 PM)
Minimum temperature yesterday: 23 °F (at 5:50 PM)
Average temperature yesterday: 26 °F

Past Weeks' High & Low Weather Summary

 TemperatureHumidityPressure
High55 °F (Dec 19, 2:50 PM)100% (Dec 14, 9:20 AM)30.39 "Hg (Dec 14, 9:20 AM)
Low9 °F (Dec 29, 5:50 AM)38% (Dec 20, 12:50 PM)29.53 "Hg (Dec 28, 4:50 AM)
Average32 °F85%30.05 "Hg
* Reported Dec 14 5:50 AM — Dec 29 5:50 AM, Kapfenberg, Weather by CustomWeather, © 2014

Note: Actual official high and low records may vary slightly from our data, if they occured in-between our weather recording intervals... More about our weather records

Advertising

Kapfenberg weather history for previous 24 hours

 ConditionsComfort  
Time TempWeatherWind HumidityBarometerVisibility
5:50 AM
Dec 29
9 °FClear.5 mph78%30.15 "Hg6 mi
3:50 AM14 °FClear.2 mph67%30.18 "Hg6 mi
9:50 PM
Dec 28
23 °FOvercast.10 mph58%30.07 "Hg6 mi
8:50 PM23 °FOvercast.8 mph63%30.04 "Hg6 mi
7:50 PM23 °FOvercast.6 mph63%29.98 "Hg6 mi
6:50 PM30 °FMostly cloudy.6 mph51%29.92 "Hg6 mi
5:50 PM23 °FOvercast.3 mph86%29.89 "Hg6 mi
4:50 PM25 °FMostly cloudy.8 mph86%29.86 "Hg6 mi
3:50 PM25 °FMore clouds than sun.9 mph93%29.80 "Hg4 mi
2:50 PM27 °FLight snow. More clouds than sun.10 mph86%29.77 "Hg3 mi
1:50 PM27 °FLight snow. More clouds than sun.9 mph100%29.71 "Hg2 mi
12:50 PM25 °FLight snow. More clouds than sun.6 mph93%29.68 "Hg2 mi
11:50 AM28 °FLight snow. More clouds than sun.13 mph93%29.68 "Hg3 mi
10:50 AM28 °FLight snow. More clouds than sun.12 mph100%N/A2 mi
9:50 AM28 °FLight snow. More clouds than sun.3 mph86%29.62 "Hg1 mi
8:50 AM27 °FSnow. Ice fog.1 mph93%29.59 "Hg1 mi
7:50 AM27 °FSnow. Ice fog.1 mph93%29.56 "Hg1 mi
Weather by CustomWeather, © 2014

See weather overviewHow to use our weather pages